DW6885 Weather Reports


Display with metric or nautical units.
time (UTC)temp
F
wind
direction
speed
MPH
gust
MPH
rain 1hr
in
rain 24hr
in
rain mn
in
humidity
%
barometer
mb
20150425122512 36 0 3.0 12.0 0.00 0.00 0.00 65 1008.3
20150425122508 35 248 3.0 8.0 0.00 0.00 0.00 65 1008.3
20150425121511 35 336 3.0 12.0 0.00 0.00 0.00 66 1008.3
20150425121010 35 360 2.0 11.0 0.00 0.00 0.00 66 1008.3
20150425120511 35 299 3.0 12.0 0.00 0.00 0.00 67 1008.1
20150425115511 35 356 3.0 5.0 0.00 0.00 0.00 67 1008.0
20150425115509 34 11 1.0 5.0 0.00 0.00 0.00 67 1008.0
20150425114511 34 59 1.0 10.0 0.00 0.00 0.00 68 1008.0
20150425114008 34 349 3.0 10.0 0.00 0.00 0.00 68 1008.0
20150425113511 34 335 2.0 10.0 0.00 0.00 0.00 69 1008.1
20150425112509 33 355 2.0 10.0 0.00 0.00 0.00 71 1008.1
20150425111511 32 102 0.0 3.0 0.00 0.00 0.00 73 1007.9
20150425111012 32 274 0.0 4.0 0.00 0.00 0.00 73 1007.8
20150425105511 32 324 1.0 3.0 0.00 0.00 0.00 76 1007.9
20150425105408 31 307 0.0 3.0 0.00 0.00 0.00 76 1007.8
20150425104511 31 302 1.0 7.0 0.00 0.00 0.00 74 1007.8
20150425103911 31 296 2.0 7.0 0.00 0.00 0.00 75 1007.8
20150425103512 31 61 2.0 5.0 0.00 0.00 0.00 74 1007.8
20150425102408 31 331 1.0 5.0 0.00 0.00 0.00 74 1007.6
20150425100908 30 197 1.0 11.0 0.00 0.00 0.00 76 1007.3
20150425100511 31 350 1.0 8.0 0.00 0.00 0.00 76 1007.3
20150425095512 30 317 2.0 6.0 0.00 0.00 0.00 76 1007.3
20150425095408 30 331 1.0 6.0 0.00 0.00 0.00 76 1007.3
20150425094511 31 316 1.0 3.0 0.00 0.00 0.00 75 1007.4
20150425093909 31 326 0.0 3.0 0.00 0.00 0.00 74 1007.2
20150425093511 31 326 1.0 7.0 0.00 0.00 0.00 74 1007.2
20150425092511 31 351 2.0 7.0 0.00 0.00 0.00 74 1007.2
20150425092308 31 350 2.0 6.0 0.00 0.00 0.00 74 1007.1
20150425091512 31 123 2.0 12.0 0.00 0.00 0.00 74 1007.1
20150425090808 31 341 2.0 12.0 0.00 0.00 0.00 74 1007.1
20150425090511 31 349 3.0 12.0 0.00 0.00 0.00 74 1007.1
20150425085512 31 324 2.0 5.0 0.00 0.00 0.00 74 1007.3
20150425085308 31 319 2.0 5.0 0.00 0.00 0.00 73 1007.4
20150425084511 31 19 2.0 9.0 0.00 0.00 0.00 73 1007.4
20150425083808 31 278 0.0 9.0 0.00 0.00 0.00 74 1007.4
20150425083511 32 9 2.0 12.0 0.00 0.00 0.00 73 1007.4
20150425082512 32 332 3.0 10.0 0.00 0.00 0.00 72 1007.3
20150425082308 31 309 2.0 12.0 0.00 0.00 0.00 73 1007.1
20150425080707 32 19 1.0 10.0 0.00 0.00 0.00 72 1007.2
20150425080510 32 316 3.0 8.0 0.00 0.00 0.00 72 1007.3
20150425075511 32 22 1.0 7.0 0.00 0.00 0.00 72 1007.3
20150425075207 32 296 1.0 10.0 0.00 0.00 0.00 72 1007.2
20150425074511 32 278 2.0 5.0 0.00 0.00 0.00 72 1007.2
20150425073707 32 327 2.0 9.0 0.00 0.00 0.00 71 1007.3
20150425073511 32 47 2.0 6.0 0.00 0.00 0.00 71 1007.3
20150425072511 32 350 2.0 6.0 0.00 0.00 0.00 71 1007.3
20150425072207 32 217 1.0 8.0 0.00 0.00 0.00 70 1007.4
20150425071511 33 223 2.0 9.0 0.00 0.00 0.00 70 1007.4
20150425070706 32 17 2.0 8.0 0.00 0.00 0.00 70 1007.4
20150425070511 33 11 2.0 8.0 0.00 0.00 0.00 70 1007.5
20150425065307 32 322 4.0 12.0 0.00 0.00 0.00 70 1007.5
20150425064513 33 296 1.0 5.0 0.00 0.00 0.00 69 1007.5
20150425063807 32 107 3.0 11.0 0.00 0.00 0.00 69 1007.6
20150425063513 33 3 1.0 8.0 0.00 0.00 0.00 69 1007.6
20150425062512 33 219 0.0 8.0 0.00 0.00 0.00 69 1007.6
20150425062307 32 155 2.0 9.0 0.00 0.00 0.00 69 1007.5
20150425061512 33 296 2.0 7.0 0.00 0.00 0.00 69 1007.6
20150425060807 32 213 0.0 6.0 0.00 0.00 0.00 69 1007.7
20150425060514 33 276 1.0 6.0 0.00 0.00 0.00 68 1007.6
20150425055307 32 301 1.0 5.0 0.00 0.00 0.00 69 1007.7
20150425054512 33 160 1.0 8.0 0.00 0.00 0.00 68 1007.8
20150425053513 33 13 1.0 8.0 0.00 0.00 0.00 67 1007.9
20150425052512 33 46 2.0 12.0 0.00 0.00 0.00 67 1008.0
20150425052008 33 339 1.0 5.0 0.00 0.00 0.00 67 1007.9
20150425050516 33 150 1.0 8.0 0.00 0.00 0.00 66 1008.0
20150425050513 34 61 2.0 14.0 0.00 0.00 0.00 66 1008.0
20150425045513 34 291 3.0 14.0 0.00 0.00 0.00 66 1008.1
20150425045007 33 78 2.0 7.0 0.00 0.00 0.00 66 1008.2
20150425044513 34 0 2.0 5.0 0.00 0.00 0.00 66 1008.3
20150425043512 34 201 2.0 8.0 0.00 0.00 0.00 65 1008.2
20150425043507 33 229 1.0 9.0 0.00 0.00 0.00 65 1008.2
20150425042512 34 287 2.0 8.0 0.00 0.00 0.00 66 1008.1
20150425041907 34 313 0.0 4.0 0.00 0.00 0.00 66 1008.2
20150425041514 34 337 1.0 3.0 0.00 0.00 0.00 65 1008.5
20150425040512 35 272 0.0 3.0 0.00 0.00 0.00 66 1008.7
20150425040408 34 337 0.0 4.0 0.00 0.00 0.00 66 1008.8
20150425035511 35 245 1.0 8.0 0.00 0.00 0.00 65 1008.8
20150425034807 35 99 1.0 8.0 0.00 0.00 0.00 65 1008.8
20150425033308 35 29 2.0 5.0 0.00 0.00 0.00 65 1008.9
20150425032511 35 282 1.0 6.0 0.00 0.00 0.00 64 1008.9
20150425031707 35 317 1.0 4.0 0.00 0.00 0.00 64 1008.9
20150425031510 35 248 1.0 5.0 0.00 0.00 0.00 64 1008.9
20150425030207 35 98 1.0 9.0 0.00 0.00 0.00 63 1009.1
20150425024706 35 348 2.0 4.0 0.00 0.00 0.00 64 1009.2
20150425024511 36 195 1.0 7.0 0.00 0.00 0.00 64 1009.1
20150425023511 36 226 2.0 9.0 0.00 0.00 0.00 63 1009.2
20150425023207 35 323 3.0 9.0 0.00 0.00 0.00 63 1009.2
20150425022510 36 201 1.0 3.0 0.00 0.00 0.00 65 1009.2
20150425021707 36 304 0.0 4.0 0.00 0.00 0.00 64 1009.2
20150425020511 36 194 2.0 3.0 0.00 0.00 0.00 65 1009.1
20150425020207 36 248 0.0 4.0 0.00 0.00 0.00 65 1009.2
20150425015510 36 229 1.0 5.0 0.00 0.00 0.00 64 1009.2
20150425014707 36 192 1.0 5.0 0.00 0.00 0.00 64 1009.2
20150425013015 36 360 1.0 9.0 0.00 0.00 0.00 63 1009.1
20150425012511 37 320 3.0 12.0 0.00 0.00 0.00 63 1009.1
20150425011510 37 19 2.0 12.0 0.00 0.00 0.00 62 1009.1
20150425011410 36 299 2.0 12.0 0.00 0.00 0.00 62 1009.1
20150425005908 37 299 3.0 9.0 0.00 0.00 0.00 61 1008.9
20150425004511 37 9 1.0 6.0 0.00 0.00 0.00 61 1008.9
20150425004311 37 264 1.0 5.0 0.00 0.00 0.00 61 1008.9
20150425003512 37 288 2.0 8.0 0.00 0.00 0.00 60 1008.8
20150425002807 37 216 2.0 9.0 0.00 0.00 0.00 59 1008.8
20150425001308 37 242 1.0 9.0 0.00 0.00 0.00 59 1008.8
20150424235707 37 250 1.0 9.0 0.00 0.00 0.00 58 1008.5
20150424235510 38 349 1.0 9.0 0.00 0.00 0.00 58 1008.4
20150424234511 38 215 0.0 5.0 0.00 0.00 0.00 57 1008.3
20150424234207 38 182 0.0 5.0 0.00 0.00 0.00 57 1008.3
20150424233510 38 47 1.0 5.0 0.00 0.00 0.00 56 1008.3
20150424232706 38 145 0.0 5.0 0.00 0.00 0.00 56 1008.1
20150424232511 38 312 2.0 6.0 0.00 0.00 0.00 55 1008.1
20150424231511 38 243 2.0 9.0 0.00 0.00 0.00 55 1007.9
20150424231206 38 153 0.0 9.0 0.00 0.00 0.00 55 1007.9
20150424230510 39 194 3.0 8.0 0.00 0.00 0.00 54 1008.0
20150424225706 38 287 2.0 8.0 0.00 0.00 0.00 55 1007.9
20150424225511 39 251 3.0 8.0 0.00 0.00 0.00 54 1007.9
20150424224511 39 331 2.0 8.0 0.00 0.00 0.00 55 1007.8
20150424224006 39 219 2.0 8.0 0.00 0.00 0.00 53 1007.8
20150424223510 39 29 3.0 8.0 0.00 0.00 0.00 54 1007.7
20150424222513 39 148 3.0 9.0 0.00 0.00 0.00 53 1007.8
20150424221015 39 316 2.0 5.0 0.00 0.00 0.00 53 1007.6
20150424220512 40 319 2.0 12.0 0.00 0.00 0.00 52 1007.5
20150424215706 39 252 3.0 14.0 0.00 0.00 0.00 52 1007.5
20150424214511 40 351 5.0 12.0 0.00 0.00 0.00 52 1007.4
20150424213909 40 311 4.0 12.0 0.00 0.00 0.00 51 1007.3
20150424213511 40 305 3.0 12.0 0.00 0.00 0.00 51 1007.2
20150424212307 40 346 2.0 9.0 0.00 0.00 0.00 51 1007.1
20150424211511 41 241 3.0 12.0 0.00 0.00 0.00 51 1007.2
20150424210807 41 347 1.0 11.0 0.00 0.00 0.00 50 1007.1
20150424210511 42 344 2.0 12.0 0.00 0.00 0.00 50 1007.1
20150424205307 41 219 3.0 12.0 0.00 0.00 0.00 49 1007.0
20150424204510 41 0 3.0 13.0 0.00 0.00 0.00 50 1007.1
20150424203706 41 355 4.0 10.0 0.00 0.00 0.00 49 1006.9
20150424203510 42 261 4.0 10.0 0.00 0.00 0.00 49 1006.9
20150424202207 41 232 3.0 13.0 0.00 0.00 0.00 49 1006.8
20150424201510 42 30 5.0 12.0 0.00 0.00 0.00 47 1006.8
20150424200707 42 247 3.0 11.0 0.00 0.00 0.00 48 1006.5
20150424200511 43 345 3.0 10.0 0.00 0.00 0.00 50 1006.6
20150424195207 41 289 3.0 15.0 0.00 0.00 0.00 50 1006.5
20150424194510 41 40 3.0 12.0 0.00 0.00 0.00 51 1006.5
20150424193513 40 319 3.0 12.0 0.00 0.00 0.00 51 1006.4
20150424193511 41 356 3.0 12.0 0.00 0.00 0.00 51 1006.4
20150424192510 41 357 3.0 9.0 0.00 0.00 0.00 51 1006.4
20150424192015 40 194 2.0 10.0 0.00 0.00 0.00 52 1006.4
20150424191510 41 332 5.0 9.0 0.00 0.00 0.00 52 1006.4
20150424190706 41 128 3.0 14.0 0.00 0.00 0.00 52 1006.4
20150424190510 41 298 7.0 12.0 0.00 0.00 0.00 52 1006.4
20150424184907 40 94 3.0 13.0 0.00 0.00 0.00 54 1006.5
20150424183510 40 23 3.0 12.0 0.00 0.00 0.00 55 1006.6
20150424183407 40 32 3.0 9.0 0.00 0.00 0.00 55 1006.6
20150424181908 40 254 3.0 13.0 0.00 0.00 0.00 53 1006.5
20150424181510 41 306 4.0 12.0 0.00 0.00 0.00 53 1006.6
20150424180510 40 268 2.0 12.0 0.00 0.00 0.00 56 1006.5
20150424180307 40 335 3.0 12.0 0.00 0.00 0.00 54 1006.5
20150424175510 40 71 3.0 13.0 0.00 0.00 0.00 56 1006.6
20150424174807 40 53 3.0 12.0 0.00 0.00 0.00 54 1006.6
20150424174510 41 249 3.0 9.0 0.00 0.00 0.00 55 1006.7
20150424173515 40 183 1.0 9.0 0.00 0.00 0.00 58 1006.7
20150424173306 40 218 2.0 10.0 0.00 0.00 0.00 56 1006.7
20150424172510 40 21 2.0 9.0 0.00 0.00 0.00 57 1006.7
20150424171707 40 186 3.0 9.0 0.00 0.00 0.00 57 1006.8
20150424171510 40 328 5.0 10.0 0.00 0.00 0.00 56 1006.7
20150424170511 40 294 3.0 12.0 0.00 0.00 0.00 58 1006.7
20150424170207 39 5 3.0 12.0 0.00 0.00 0.00 58 1006.7
20150424164706 39 171 4.0 11.0 0.00 0.00 0.00 58 1006.6
20150424163511 39 315 4.0 12.0 0.00 0.00 0.00 58 1006.8
20150424163206 38 345 0.0 10.0 0.00 0.00 0.00 60 1006.7
20150424161707 38 298 3.0 11.0 0.00 0.00 0.00 60 1006.8
20150424161511 39 296 2.0 12.0 0.00 0.00 0.00 60 1006.8
20150424160018 38 253 4.0 11.0 0.00 0.00 0.00 60 1006.8
20150424155511 38 348 5.0 12.0 0.00 0.00 0.00 61 1006.9
20150424154707 37 327 3.0 11.0 0.00 0.00 0.00 63 1007.0
20150424153015 37 340 2.0 10.0 0.00 0.00 0.00 63 1007.1
20150424152511 37 225 3.0 14.0 0.00 0.00 0.00 63 1007.0
20150424151511 38 326 5.0 14.0 0.00 0.00 0.00 63 1007.0
20150424151408 37 275 4.0 14.0 0.00 0.00 0.00 63 1007.0
20150424145907 37 15 1.0 10.0 0.00 0.00 0.00 66 1007.0
20150424145511 37 257 5.0 10.0 0.00 0.00 0.00 65 1007.1
20150424144510 37 93 4.0 12.0 0.00 0.00 0.00 65 1007.1
20150424144307 36 317 4.0 10.0 0.00 0.00 0.00 66 1007.1
20150424142807 36 304 4.0 10.0 0.00 0.00 0.00 67 1007.0
20150424141511 36 346 3.0 8.0 0.00 0.00 0.00 68 1007.1
20150424141307 36 315 2.0 12.0 0.00 0.00 0.00 68 1007.1
20150424140511 36 31 2.0 10.0 0.00 0.00 0.00 68 1007.0
20150424135706 36 231 3.0 10.0 0.00 0.00 0.00 67 1007.0
20150424135510 36 278 4.0 10.0 0.00 0.00 0.00 68 1007.1
20150424134510 36 82 3.0 10.0 0.00 0.00 0.00 69 1007.2
20150424134206 35 320 2.0 10.0 0.00 0.00 0.00 70 1007.2
20150424133510 36 279 1.0 9.0 0.00 0.00 0.00 69 1007.2
20150424132706 35 310 1.0 8.0 0.00 0.00 0.00 70 1007.2
20150424132510 35 355 1.0 9.0 0.00 0.00 0.00 70 1007.2
20150424131510 35 247 3.0 10.0 0.00 0.00 0.00 70 1007.0
20150424131207 35 323 3.0 13.0 0.00 0.00 0.00 70 1007.1
20150424130510 35 7 2.0 6.0 0.00 0.00 0.00 72 1007.1
20150424125707 35 48 0.0 5.0 0.00 0.00 0.00 72 1007.0
20150424124510 35 347 2.0 7.0 0.00 0.01 0.00 72 1007.0
20150424124015 34 349 1.0 6.0 0.00 0.00 0.00 72 1006.9
20150424123510 35 314 3.0 7.0 0.00 0.02 0.00 72 1006.9